Starlink 4467

operational
NORAD ID: 53686 Int'l Des: 2022-105 Owner: SPXS Country: US Constellation: starlink
LEOCIRCULARRETROGRADESSO

Über Starlink 4467

Beschreibung wird geladen...

Live-Position

3D-Globus wird geladen...

Nächste Überflüge

Höhenverlauf

Altitude vs Time

uPlot chart will show altitude changes over time

Zweizeiliger Elementsatz

1 53686U 22105AQ 26095.22445629 .00003266 00000-0 25866-3 0 9991
2 53686 97.6043 336.2377 0002317 96.6457 263.5031 15.01266006197228
Epoch: 5. Apr. 2026 • Age: 6 hours

Aktueller Status

Höhe 589.7 km
Geschwindigkeit 7.56 km/s
Subsatellitenpunkt -66.27°S, 12.01°W
Startdatum 31. Aug. 2022
Alter 3.5 years
Typ internet

Technische Details

Klassifizierung Payload
Masse 300.00 kg
Trockenmasse 290.00 kg
Gesamtmasse 300.00 kg
Länge 0.20 m
Durchmesser 2.80 m
Spannweite 9.00 m
Form Box + pan
Hersteller SPXS
Bus-Typ Starlink
Phasenstatus In Orbit
Besitzer/Staat SPXS/US

Große Konstellationen

Loading constellations...